Location: Demmingen
(48.6757°N, 10.4375°E)
Time: 08:02:56
(UTC+00:00)

Cosmos 676 Rocket - Pass Details

Date: 23 May 2024
Orbit: 752 x 782 km, 74.0° (Epoch: 15 June)

Event Time Altitude Azimuth Distance (km) Brightness Sun altitude
Exits shadow 00:42:50 32° 207° (SSW) 1,305 4.6 -18.0°
Maximum altitude 00:45:20 84° 292° (WNW) 793 4.0 -17.8°
Drops below altitude 10° 00:50:42 10° 22° (NNE) 2,348 7.8 -17.5°
Sets 00:53:06 0° 23° (NNE) 3,280 9.1 -17.3°
